Weather History for KMGR - December, 2012

Change the Weather History Date:

Monday, December 24, 2012

  Actual Average (KMUL) Record (KMUL)
Temperature  
Mean Temperature 54 °F -  
Max Temperature 66 °F 64 °F 80 °F (1932)
Min Temperature 42 °F 39 °F 12 °F (1989)
Degree Days  
Heating Degree Days 11    
Growing Degree Days 4 (Base 50)    
Moisture  
Dew Point 52 °F    
Average Humidity 87    
Maximum Humidity 100    
Minimum Humidity 68    
Precipitation  
Precipitation 0.00 in - - ()
Sea Level Pressure  
Sea Level Pressure 30.00 in    
Wind  
Wind Speed 3 mph (South)    
Max Wind Speed 13 mph    
Max Gust Speed 22 mph    
Visibility 9 miles    
Events Fog , Rain    
Averages and records for this station are not official NWS values.
T = Trace of Precipitation, MM = Missing Value Source: NWS Daily Summary

Daily Weather History Graph

Daily Weather History Graph

Search for Another Location

Airport or City:

Trip Planner

Search our weather history database for the weather conditions in past years. The results will help you decide how hot, cold, wet, or windy it might be!

Date:

Astronomy

Dec. 24, 2012 Rise Set
Actual Time 7:31 AM EST 5:39 PM EST
Civil Twilight 7:04 AM EST 6:05 PM EST
Nautical Twilight 6:34 AM EST 6:36 PM EST
Astronomical Twilight 6:04 AM EST 7:05 PM EST
Moon 3:01 PM EST (12/24) 4:13 AM EST (12/24)
Length of Visible Light 11h 01m
Length of Day
10h 08m
Waxing Gibbous, 88% of the Moon is Illuminated
Dec 24
Waxing Gibbous
Dec 28
Full
Jan 4
Last Quarter
Jan 11
New
Jan 18
First Quarter

Hourly Weather History & Observations

Time (EST) Temp. Windchill Dew Point Humidity Pressure Visibility Wind Dir Wind Speed Gust Speed Precip Events Conditions
12:15 AM 42.8 °F - 39.2 °F 87% 30.14 in 10.0 mi Calm Calm - N/A   Clear
12:35 AM 42.8 °F - 39.2 °F 87% 30.12 in 10.0 mi Calm Calm - N/A   Clear
12:55 AM 42.8 °F - 39.2 °F 87% 30.13 in 10.0 mi Calm Calm - N/A   Clear
1:15 AM 42.8 °F - 39.2 °F 87% 30.12 in 10.0 mi Calm Calm - N/A   Clear
1:35 AM 42.8 °F - 39.2 °F 87% 30.12 in 10.0 mi Calm Calm - N/A   Mostly Cloudy
1:55 AM 42.8 °F - 39.2 °F 87% 30.11 in 10.0 mi Calm Calm - N/A   Mostly Cloudy
2:15 AM 42.8 °F - 41.0 °F 93% 30.11 in 10.0 mi Calm Calm - N/A   Overcast
2:35 AM 44.6 °F - 41.0 °F 87% 30.10 in 10.0 mi Calm Calm - N/A   Mostly Cloudy
2:55 AM 44.6 °F - 41.0 °F 87% 30.10 in 10.0 mi Calm Calm - N/A   Scattered Clouds
3:15 AM 44.6 °F - 41.0 °F 87% 30.10 in 10.0 mi Calm Calm - N/A   Clear
3:35 AM 44.6 °F - 41.0 °F 87% 30.08 in 10.0 mi Calm Calm - N/A   Clear
3:55 AM 44.6 °F - 41.0 °F 87% 30.08 in 10.0 mi Calm Calm - N/A   Clear
4:15 AM 44.6 °F - 41.0 °F 87% 30.07 in 10.0 mi Calm Calm - N/A   Clear
4:55 AM 46.4 °F 44.3 °F 41.0 °F 81% 30.05 in 10.0 mi SE 4.6 mph - N/A   Clear
5:15 AM 46.4 °F 45.2 °F 41.0 °F 81% 30.05 in 10.0 mi SE 3.5 mph - N/A   Clear
5:35 AM 46.4 °F 45.2 °F 42.8 °F 87% 30.05 in 10.0 mi SE 3.5 mph - N/A   Clear
5:55 AM 48.2 °F - 42.8 °F 82% 30.04 in 10.0 mi SE 3.5 mph - N/A   Clear
6:15 AM 48.2 °F - 42.8 °F 82% 30.05 in 10.0 mi SSE 3.5 mph - N/A   Clear
6:35 AM 50.0 °F - 44.6 °F 82% 30.05 in 10.0 mi SSE 5.8 mph - N/A   Clear
6:55 AM 50.0 °F - 44.6 °F 82% 30.04 in 10.0 mi SSE 8.1 mph - N/A   Scattered Clouds
7:15 AM 51.8 °F - 44.6 °F 76% 30.04 in 10.0 mi SSE 5.8 mph - N/A   Scattered Clouds
7:35 AM 51.8 °F - 44.6 °F 76% 30.04 in 10.0 mi SSE 5.8 mph - N/A   Clear
7:55 AM 51.8 °F - 44.6 °F 76% 30.04 in 10.0 mi SSE 5.8 mph - N/A   Clear
8:15 AM 51.8 °F - 46.4 °F 82% 30.04 in 10.0 mi SSE 3.5 mph - N/A   Mostly Cloudy
8:35 AM 51.8 °F - 46.4 °F 82% 30.04 in 10.0 mi SSE 3.5 mph - N/A   Overcast
8:55 AM 53.6 °F - 46.4 °F 77% 30.05 in 10.0 mi South 4.6 mph - N/A   Overcast
9:15 AM 53.6 °F - 46.4 °F 77% 30.04 in 10.0 mi SSE 5.8 mph - N/A   Overcast
9:35 AM 53.6 °F - 48.2 °F 82% 30.04 in 10.0 mi South 8.1 mph - N/A   Mostly Cloudy
9:55 AM 55.4 °F - 48.2 °F 77% 30.04 in 10.0 mi SSE 8.1 mph - N/A   Scattered Clouds
10:15 AM 57.2 °F - 50.0 °F 77% 30.04 in 10.0 mi South 8.1 mph - N/A   Scattered Clouds
10:35 AM 59.0 °F - 50.0 °F 72% 30.03 in 10.0 mi South 9.2 mph - N/A   Scattered Clouds
10:55 AM 59.0 °F - 50.0 °F 72% 30.03 in 10.0 mi South 9.2 mph - N/A   Mostly Cloudy
11:15 AM 60.8 °F - 51.8 °F 72% 30.03 in 10.0 mi South 8.1 mph - N/A   Mostly Cloudy
11:35 AM 60.8 °F - 53.6 °F 77% 30.00 in 10.0 mi South 12.7 mph 16.1 mph N/A   Scattered Clouds
11:55 AM 62.6 °F - 53.6 °F 72% 29.99 in 10.0 mi South 10.4 mph 21.9 mph N/A   Scattered Clouds
12:15 PM 64.4 °F - 53.6 °F 68% 29.98 in 10.0 mi South 10.4 mph 16.1 mph N/A   Scattered Clouds
12:35 PM 62.6 °F - 53.6 °F 72% 29.97 in 10.0 mi South 10.4 mph - N/A   Mostly Cloudy
12:55 PM 62.6 °F - 55.4 °F 77% 29.97 in 10.0 mi SSW 8.1 mph - N/A Rain Light Rain
1:15 PM 64.4 °F - 55.4 °F 73% 29.95 in 10.0 mi SSW 8.1 mph - N/A   Mostly Cloudy
1:35 PM 64.4 °F - 57.2 °F 77% 29.93 in 10.0 mi South 9.2 mph - N/A   Mostly Cloudy
1:55 PM 66.2 °F - 59.0 °F 78% 29.92 in 10.0 mi South 11.5 mph 20.7 mph N/A   Overcast
2:15 PM 64.4 °F - 60.8 °F 88% 29.92 in 10.0 mi SSW 9.2 mph - N/A Rain Rain
2:35 PM 64.4 °F - 60.8 °F 88% 29.88 in 4.0 mi South 11.5 mph - N/A Rain Rain
2:55 PM 62.6 °F - 60.8 °F 94% 29.91 in 5.0 mi SW 6.9 mph - N/A Rain Rain
3:15 PM 62.6 °F - 60.8 °F 94% 29.92 in 7.0 mi Calm Calm - N/A Rain Light Rain
3:35 PM 62.6 °F - 60.8 °F 94% 29.92 in 7.0 mi South 4.6 mph - N/A Rain Rain
3:55 PM 62.6 °F - 60.8 °F 94% 29.91 in 5.0 mi Calm Calm - N/A Rain Rain
4:15 PM 62.6 °F - 60.8 °F 94% 29.92 in 5.0 mi SSW 3.5 mph - N/A Rain Light Rain
4:35 PM 62.6 °F - 60.8 °F 94% 29.93 in 1.2 mi SSW 3.5 mph - N/A Rain Heavy Rain
4:55 PM 62.6 °F - 60.8 °F 94% 29.94 in 2.5 mi NNW 8.1 mph - N/A Rain Rain
5:15 PM 62.6 °F - 60.8 °F 94% 29.93 in 10.0 mi South 4.6 mph - N/A   Mostly Cloudy
5:35 PM 62.6 °F - 60.8 °F 94% 29.94 in 10.0 mi SSW 3.5 mph - N/A   Scattered Clouds
5:55 PM 62.6 °F - 60.8 °F 94% 29.94 in 10.0 mi SSW 3.5 mph - N/A   Mostly Cloudy
6:15 PM 62.6 °F - 60.8 °F 94% 29.95 in 10.0 mi SSW 3.5 mph - N/A   Mostly Cloudy
6:35 PM 62.6 °F - 62.6 °F 100% 29.95 in 10.0 mi Calm Calm - N/A   Overcast
6:55 PM 62.6 °F - 60.8 °F 94% 29.95 in 10.0 mi Calm Calm - N/A   Overcast
7:15 PM 62.6 °F - 60.8 °F 94% 29.95 in 10.0 mi Calm Calm - N/A   Overcast
7:35 PM 62.6 °F - 60.8 °F 94% 29.95 in 10.0 mi Calm Calm - N/A   Overcast
7:55 PM 62.6 °F - 60.8 °F 94% 29.95 in 10.0 mi Calm Calm - N/A   Overcast
8:15 PM 62.6 °F - 60.8 °F 94% 29.96 in 10.0 mi Calm Calm - N/A   Overcast
8:35 PM 62.6 °F - 60.8 °F 94% 29.96 in 10.0 mi SSE 3.5 mph - N/A   Mostly Cloudy
8:55 PM 62.6 °F - 60.8 °F 94% 29.97 in 7.0 mi Calm Calm - N/A   Mostly Cloudy
9:15 PM 62.6 °F - 60.8 °F 94% 29.97 in 10.0 mi Calm Calm - N/A   Overcast
9:35 PM 62.6 °F - 62.6 °F 100% 29.97 in 10.0 mi Calm Calm - N/A   Overcast
9:55 PM 62.6 °F - 62.6 °F 100% 29.97 in 10.0 mi SSE 4.6 mph - N/A   Overcast
10:15 PM 62.6 °F - 60.8 °F 94% 29.97 in 7.0 mi SSE 3.5 mph - N/A   Mostly Cloudy
10:35 PM 60.8 °F - 60.8 °F 100% 29.97 in 3.0 mi Calm Calm - N/A   Overcast
10:55 PM 60.8 °F - 60.8 °F 100% 29.98 in 2.5 mi Calm Calm - N/A   Overcast
11:15 PM 62.6 °F - 60.8 °F 94% 29.98 in 0.8 mi Calm Calm - N/A   Overcast
11:35 PM 62.6 °F - 60.8 °F 94% 29.97 in 0.8 mi Calm Calm - N/A   Overcast
11:55 PM 60.8 °F - 60.8 °F 100% 29.97 in 0.5 mi Calm Calm - N/A Fog Fog